When you browse on this site, cookies collect data to enhance your experience and personalize the content and advertising you see.
Visit our Privacy Policy to learn more. By continuing to use the site, you agree to this use of cookies and data.

Stündliche Wetter Ugledar

Heute, 26 September, Samstag

Zeit Temperatur Niederschläge Wind Luftdruck Luftfeuchtigkeit
00:00 +18°C° 0 mm 4 m/S 743 mmHg 46%
01:00 +17°C° 0 mm 4 m/S 743 mmHg 46%
02:00 +17°C° 0 mm 4 m/S 743 mmHg 49%
03:00 +17°C° 0 mm 4 m/S 743 mmHg 49%
04:00 +15°C° 0 mm 4 m/S 743 mmHg 49%
05:00 +15°C° 0 mm 4 m/S 743 mmHg 48%
06:00 +16°C° 0 mm 5 m/S 743 mmHg 45%
07:00 +19°C° 0 mm 6 m/S 743 mmHg 42%
08:00 +20°C° 0 mm 6 m/S 743 mmHg 39%
09:00 +22°C° 0 mm 7 m/S 743 mmHg 35%
10:00 +24°C° 0 mm 7 m/S 743 mmHg 31%
11:00 +27°C° 0 mm 7 m/S 743 mmHg 27%
12:00 +28°C° 0 mm 7 m/S 743 mmHg 25%
13:00 +29°C° 0 mm 7 m/S 742 mmHg 23%
14:00 +29°C° 0 mm 7 m/S 742 mmHg 20%
15:00 +28°C° 0 mm 6 m/S 742 mmHg 22%
16:00 +27°C° 0 mm 5 m/S 742 mmHg 24%
17:00 +26°C° 0 mm 5 m/S 742 mmHg 26%
18:00 +25°C° 0 mm 5 m/S 742 mmHg 28%
19:00 +23°C° 0 mm 6 m/S 742 mmHg 30%
20:00 +22°C° 0 mm 7 m/S 742 mmHg 32%
21:00 +22°C° 0 mm 7 m/S 743 mmHg 33%
22:00 +22°C° 0 mm 8 m/S 743 mmHg 35%
23:00 +21°C° 0 mm 8 m/S 743 mmHg 36%

Morgen, 27 September, Sonntag

Zeit Temperatur Niederschläge Wind Luftdruck Luftfeuchtigkeit
00:00 +20°C° 0 mm 8 m/S 743 mmHg 40%
01:00 +20°C° 0 mm 8 m/S 743 mmHg 43%
02:00 +18°C° 0 mm 8 m/S 743 mmHg 46%
03:00 +17°C° 0 mm 8 m/S 743 mmHg 48%
04:00 +16°C° 0 mm 8 m/S 744 mmHg 51%
05:00 +16°C° 0 mm 8 m/S 744 mmHg 53%
06:00 +16°C° 0 mm 9 m/S 744 mmHg 53%
07:00 +17°C° 0 mm 9 m/S 744 mmHg 52%
08:00 +17°C° 0 mm 9 m/S 745 mmHg 52%
09:00 +19°C° 0 mm 9 m/S 745 mmHg 48%
10:00 +22°C° 0 mm 9 m/S 745 mmHg 44%
11:00 +24°C° 0 mm 9 m/S 745 mmHg 40%
12:00 +26°C° 0 mm 9 m/S 745 mmHg 39%
13:00 +27°C° 0 mm 8 m/S 745 mmHg 38%
14:00 +27°C° 0 mm 8 m/S 745 mmHg 37%
15:00 +26°C° 0.2 mm 7 m/S 745 mmHg 42%
16:00 +24°C° 0.2 mm 6 m/S 745 mmHg 47%
17:00 +23°C° 0.2 mm 5 m/S 745 mmHg 52%
18:00 +23°C° 0.3 mm 5 m/S 745 mmHg 51%
19:00 +22°C° 0.3 mm 5 m/S 746 mmHg 51%
20:00 +22°C° 0.3 mm 4 m/S 746 mmHg 51%
21:00 +21°C° 0.2 mm 5 m/S 746 mmHg 51%
22:00 +20°C° 0.2 mm 5 m/S 747 mmHg 52%
23:00 +20°C° 0.2 mm 5 m/S 747 mmHg 53%

übermorgen, 28 September, Montag

Zeit Temperatur Niederschläge Wind Luftdruck Luftfeuchtigkeit
00:00 +19°C° 0 mm 5 m/S 747 mmHg 55%
01:00 +19°C° 0 mm 5 m/S 747 mmHg 56%
02:00 +17°C° 0 mm 5 m/S 747 mmHg 58%
03:00 +16°C° 0 mm 5 m/S 748 mmHg 61%
04:00 +17°C° 0 mm 4 m/S 748 mmHg 63%
05:00 +15°C° 0 mm 4 m/S 748 mmHg 65%
06:00 +17°C° 0 mm 4 m/S 749 mmHg 62%
07:00 +17°C° 0 mm 5 m/S 749 mmHg 59%
08:00 +17°C° 0 mm 5 m/S 749 mmHg 56%
09:00 +20°C° 0 mm 5 m/S 749 mmHg 50%
10:00 +22°C° 0 mm 5 m/S 749 mmHg 45%
11:00 +25°C° 0 mm 5 m/S 749 mmHg 40%
12:00 +26°C° 0 mm 5 m/S 749 mmHg 38%
13:00 +27°C° 0 mm 4 m/S 749 mmHg 36%
14:00 +28°C° 0 mm 4 m/S 749 mmHg 34%
15:00 +27°C° 0 mm 4 m/S 749 mmHg 36%
16:00 +25°C° 0 mm 3 m/S 749 mmHg 39%
17:00 +24°C° 0 mm 2 m/S 749 mmHg 42%
18:00 +24°C° 0 mm 3 m/S 749 mmHg 41%
19:00 +22°C° 0 mm 4 m/S 749 mmHg 40%
20:00 +21°C° 0 mm 5 m/S 749 mmHg 40%
21:00 +21°C° 0 mm 6 m/S 748 mmHg 41%
22:00 +21°C° 0 mm 6 m/S 748 mmHg 42%
23:00 +20°C° 0 mm 7 m/S 748 mmHg 44%

29 September, Dienstag

Zeit Temperatur Niederschläge Wind Luftdruck Luftfeuchtigkeit
00:00 +18°C° 0 mm 7 m/S 748 mmHg 47%
01:00 +18°C° 0 mm 7 m/S 748 mmHg 50%
02:00 +17°C° 0 mm 7 m/S 748 mmHg 53%
03:00 +16°C° 0 mm 7 m/S 748 mmHg 55%
04:00 +16°C° 0 mm 7 m/S 748 mmHg 58%
05:00 +15°C° 0 mm 8 m/S 748 mmHg 60%
06:00 +15°C° 0 mm 8 m/S 747 mmHg 61%
07:00 +16°C° 0 mm 8 m/S 747 mmHg 61%
08:00 +16°C° 0 mm 8 m/S 747 mmHg 62%
09:00 +17°C° 0 mm 8 m/S 747 mmHg 56%
10:00 +20°C° 0 mm 8 m/S 747 mmHg 50%
11:00 +21°C° 0 mm 9 m/S 746 mmHg 44%
12:00 +22°C° 0 mm 9 m/S 746 mmHg 41%
13:00 +23°C° 0 mm 9 m/S 746 mmHg 39%
14:00 +24°C° 0 mm 9 m/S 745 mmHg 36%
15:00 +24°C° 0 mm 8 m/S 745 mmHg 36%
16:00 +24°C° 0 mm 8 m/S 744 mmHg 35%
17:00 +23°C° 0 mm 7 m/S 744 mmHg 34%
18:00 +23°C° 0 mm 8 m/S 744 mmHg 35%
19:00 +22°C° 0 mm 8 m/S 743 mmHg 35%
20:00 +22°C° 0 mm 8 m/S 743 mmHg 35%
21:00 +21°C° 0.1 mm 8 m/S 743 mmHg 37%
22:00 +21°C° 0.1 mm 9 m/S 743 mmHg 39%
23:00 +19°C° 0.1 mm 9 m/S 742 mmHg 40%

30 September, Mittwoch

Zeit Temperatur Niederschläge Wind Luftdruck Luftfeuchtigkeit
00:00 +18°C° 0 mm 9 m/S 742 mmHg 42%
01:00 +18°C° 0 mm 9 m/S 742 mmHg 44%
02:00 +17°C° 0 mm 9 m/S 742 mmHg 45%
03:00 +16°C° 0.2 mm 9 m/S 742 mmHg 50%
04:00 +15°C° 0.2 mm 8 m/S 742 mmHg 56%
05:00 +13°C° 0.2 mm 8 m/S 742 mmHg 61%
06:00 +15°C° 0.3 mm 8 m/S 741 mmHg 59%
07:00 +15°C° 0.3 mm 9 m/S 741 mmHg 57%
08:00 +16°C° 0.3 mm 9 m/S 741 mmHg 55%
09:00 +17°C° 0.2 mm 9 m/S 741 mmHg 52%
10:00 +18°C° 0.2 mm 10 m/S 741 mmHg 50%
11:00 +21°C° 0.2 mm 10 m/S 741 mmHg 47%
12:00 +21°C° 0.1 mm 10 m/S 740 mmHg 45%
13:00 +21°C° 0.1 mm 10 m/S 740 mmHg 43%
14:00 +22°C° 0.1 mm 10 m/S 740 mmHg 41%
15:00 +21°C° 0.3 mm 10 m/S 740 mmHg 46%
16:00 +19°C° 0.3 mm 11 m/S 740 mmHg 50%
17:00 +18°C° 0.3 mm 11 m/S 740 mmHg 54%
18:00 +18°C° 0.2 mm 11 m/S 740 mmHg 55%
19:00 +18°C° 0.2 mm 10 m/S 740 mmHg 56%
20:00 +17°C° 0.2 mm 10 m/S 740 mmHg 57%
21:00 +17°C° 0 mm 9 m/S 740 mmHg 54%
22:00 +17°C° 0 mm 9 m/S 740 mmHg 51%
23:00 +18°C° 0 mm 9 m/S 740 mmHg 47%

1 Oktober, Donnerstag

Zeit Temperatur Niederschläge Wind Luftdruck Luftfeuchtigkeit
00:00 +17°C° 0 mm 9 m/S 741 mmHg 50%
01:00 +16°C° 0 mm 8 m/S 741 mmHg 53%
02:00 +16°C° 0 mm 8 m/S 741 mmHg 55%
03:00 +15°C° 0 mm 8 m/S 741 mmHg 61%
04:00 +15°C° 0 mm 7 m/S 742 mmHg 67%
05:00 +14°C° 0 mm 7 m/S 742 mmHg 72%
06:00 +15°C° 0 mm 7 m/S 742 mmHg 69%
07:00 +16°C° 0 mm 7 m/S 743 mmHg 67%
08:00 +16°C° 0 mm 7 m/S 743 mmHg 64%
09:00 +16°C° 0 mm 7 m/S 743 mmHg 63%
10:00 +16°C° 0 mm 7 m/S 744 mmHg 62%
11:00 +17°C° 0 mm 7 m/S 744 mmHg 61%
12:00 +17°C° 0 mm 7 m/S 744 mmHg 60%
13:00 +17°C° 0 mm 7 m/S 744 mmHg 58%
14:00 +17°C° 0 mm 7 m/S 744 mmHg 57%
15:00 +17°C° 0.1 mm 7 m/S 744 mmHg 57%
16:00 +17°C° 0.1 mm 6 m/S 743 mmHg 58%
17:00 +17°C° 0.1 mm 6 m/S 743 mmHg 58%
18:00 +17°C° 0.1 mm 5 m/S 743 mmHg 59%
19:00 +17°C° 0.1 mm 4 m/S 743 mmHg 61%
20:00 +17°C° 0.1 mm 4 m/S 744 mmHg 62%
21:00 +16°C° 0 mm 5 m/S 744 mmHg 57%
22:00 +16°C° 0 mm 5 m/S 744 mmHg 53%
23:00 +17°C° 0 mm 6 m/S 744 mmHg 49%
Mehr zeigen